TimeCDT,TemperatureF,Dew PointF,Humidity,Sea Level PressureIn,VisibilityMPH,Wind Direction,Wind SpeedMPH,Gust SpeedMPH,PrecipitationIn,Events,Conditions,WindDirDegrees,DateUTC
12:15 AM,55.4,50.0,82,30.13,10.0,NE,4.6,-,N/A,,Clear,50,2013-06-14 05:15:00
12:35 AM,53.6,50.0,88,30.13,10.0,ENE,5.8,-,N/A,,Clear,60,2013-06-14 05:35:00
12:55 AM,53.6,50.0,88,30.13,10.0,NE,6.9,-,N/A,,Clear,50,2013-06-14 05:55:00
1:15 AM,53.6,51.8,94,30.14,10.0,NE,6.9,-,N/A,,Clear,50,2013-06-14 06:15:00
1:35 AM,53.6,51.8,94,30.13,10.0,NE,6.9,-,N/A,,Clear,50,2013-06-14 06:35:00
1:55 AM,53.6,51.8,94,30.13,10.0,NE,5.8,-,N/A,,Clear,50,2013-06-14 06:55:00
2:15 AM,53.6,50.0,88,30.14,10.0,Calm,Calm,-,N/A,,Clear,0,2013-06-14 07:15:00
2:35 AM,53.6,50.0,88,30.14,10.0,Calm,Calm,-,N/A,,Clear,0,2013-06-14 07:35:00
2:55 AM,51.8,50.0,94,30.14,10.0,NNE,3.5,-,N/A,,Clear,30,2013-06-14 07:55:00
3:15 AM,51.8,50.0,94,30.14,10.0,NNE,4.6,-,N/A,,Clear,30,2013-06-14 08:15:00
3:35 AM,51.8,50.0,94,30.14,10.0,NNE,3.5,-,N/A,,Clear,30,2013-06-14 08:35:00
3:55 AM,51.8,50.0,94,30.14,10.0,NE,4.6,-,N/A,,Clear,40,2013-06-14 08:55:00
4:15 AM,51.8,50.0,94,30.15,10.0,NNE,3.5,-,N/A,,Clear,30,2013-06-14 09:15:00
4:35 AM,51.8,48.2,88,30.14,10.0,NNE,3.5,-,N/A,,Clear,30,2013-06-14 09:35:00
4:55 AM,50.0,48.2,94,30.14,10.0,NNE,4.6,-,N/A,,Clear,30,2013-06-14 09:55:00
5:15 AM,50.0,48.2,94,30.14,7.0,NE,4.6,-,N/A,,Clear,40,2013-06-14 10:15:00
5:35 AM,50.0,46.4,87,30.15,7.0,NE,4.6,-,N/A,,Clear,40,2013-06-14 10:35:00
5:45 AM,51.8,48.2,88,30.15,10.0,NNE,4.6,-,N/A,,Clear,30,2013-06-14 10:45:00
6:45 AM,53.6,48.2,82,30.15,10.0,ENE,9.2,-,N/A,,Clear,60,2013-06-14 11:45:00
7:45 AM,57.2,48.2,72,30.15,10.0,East,10.4,-,N/A,,Clear,80,2013-06-14 12:45:00
8:52 AM,60.8,48.2,63,30.17,10.0,SSE,4.6,-,N/A,,Clear,160,2013-06-14 13:52:00
9:45 AM,64.4,48.2,56,30.16,10.0,SE,6.9,-,N/A,,Clear,140,2013-06-14 14:45:00
10:45 AM,68.0,48.2,49,30.16,10.0,SE,5.8,-,N/A,,Clear,140,2013-06-14 15:45:00
11:45 AM,69.8,46.4,43,30.15,10.0,SSE,8.1,-,N/A,,Clear,150,2013-06-14 16:45:00
12:45 PM,71.6,48.2,43,30.12,10.0,SSE,5.8,-,N/A,,Clear,150,2013-06-14 17:45:00
1:45 PM,71.6,46.4,41,30.12,10.0,SSE,6.9,-,N/A,,Clear,160,2013-06-14 18:45:00
2:45 PM,73.4,46.4,38,30.11,10.0,Calm,Calm,-,N/A,,Clear,0,2013-06-14 19:45:00
3:45 PM,73.4,50.0,44,30.07,10.0,South,9.2,-,N/A,,Clear,180,2013-06-14 20:45:00
4:45 PM,73.4,50.0,44,30.04,10.0,South,9.2,16.1,N/A,,Clear,190,2013-06-14 21:45:00
5:45 PM,71.6,50.0,46,30.02,10.0,South,9.2,-,N/A,,Clear,180,2013-06-14 22:45:00
6:45 PM,73.4,51.8,47,30.03,10.0,South,5.8,-,N/A,,Scattered Clouds,190,2013-06-14 23:45:00
7:45 PM,69.8,53.6,56,30.04,10.0,Calm,Calm,-,N/A,,Clear,0,2013-06-15 00:45:00
8:45 PM,66.2,53.6,64,30.03,10.0,ESE,3.5,-,N/A,,Scattered Clouds,120,2013-06-15 01:45:00
9:45 PM,62.6,53.6,72,30.02,10.0,East,4.6,-,N/A,,Mostly Cloudy,100,2013-06-15 02:45:00
10:15 PM,62.6,53.6,72,30.01,10.0,East,6.9,-,N/A,,Scattered Clouds,100,2013-06-15 03:15:00
10:35 PM,62.6,53.6,72,30.03,10.0,East,4.6,-,N/A,,Scattered Clouds,100,2013-06-15 03:35:00
10:55 PM,60.8,53.6,77,30.04,10.0,East,3.5,-,N/A,,Clear,100,2013-06-15 03:55:00
11:15 PM,60.8,53.6,77,30.02,10.0,ESE,4.6,-,N/A,,Scattered Clouds,110,2013-06-15 04:15:00
11:35 PM,60.8,55.4,82,30.01,10.0,ESE,4.6,-,N/A,,Scattered Clouds,110,2013-06-15 04:35:00
11:55 PM,60.8,55.4,82,30.01,10.0,East,5.8,-,N/A,,Clear,100,2013-06-15 04:55:00